| time (UTC) | temp C | wind direction | speed KPH | gust KPH | rain 1hr cm | rain 24hr cm | rain mn cm | humidity % | barometer mb |
| 20260903220024 | 16 | 272 | 17.7 | 25.7 | 0.00 | 1.42 | 0.00 | 84 | 1006.4 |
| 20260903214518 | 16 | 279 | 16.1 | 25.7 | 0.00 | 1.42 | 1.42 | 85 | 1006.5 |
| 20260903213018 | 16 | 275 | 12.9 | 24.1 | 0.00 | 1.42 | 1.42 | 85 | 1006.5 |
| 20260903211517 | 16 | 268 | 17.7 | 30.6 | 0.00 | 1.42 | 1.42 | 85 | 1006.5 |
| 20260903210016 | 16 | 253 | 20.9 | 35.4 | 0.00 | 1.42 | 1.42 | 86 | 1006.4 |
| 20260903204515 | 16 | 283 | 12.9 | 25.7 | 0.00 | 1.42 | 1.42 | 87 | 1006.4 |
| 20260903203014 | 16 | 310 | 16.1 | 27.4 | 0.00 | 1.42 | 1.42 | 86 | 1006.4 |
| 20260903201514 | 16 | 272 | 22.5 | 35.4 | 0.00 | 1.42 | 1.42 | 87 | 1006.5 |
| 20260903200013 | 16 | 154 | 17.7 | 33.8 | 0.00 | 1.42 | 1.42 | 87 | 1006.3 |
| 20260903194512 | 17 | 358 | 12.9 | 27.4 | 0.00 | 1.42 | 1.42 | 87 | 1006.2 |
| 20260903193014 | 17 | 282 | 17.7 | 35.4 | 0.00 | 1.42 | 1.42 | 86 | 1006.1 |
| 20260903191526 | 17 | 214 | 14.5 | 30.6 | 0.00 | 1.42 | 1.42 | 87 | 1005.9 |
| 20260903190011 | 17 | 272 | 17.7 | 30.6 | 0.00 | 1.42 | 1.42 | 87 | 1005.7 |
| 20260903184510 | 17 | 274 | 16.1 | 35.4 | 0.00 | 1.42 | 1.42 | 87 | 1005.9 |
| 20260903183009 | 17 | 274 | 14.5 | 33.8 | 0.00 | 1.42 | 1.42 | 89 | 1005.6 |
| 20260903181511 | 17 | 236 | 8.0 | 24.1 | 0.15 | 1.42 | 1.42 | 90 | 1005.6 |
| 20260903180014 | 17 | 243 | 9.7 | 24.1 | 0.28 | 1.42 | 1.42 | 90 | 1005.2 |
| 20260903174515 | 17 | 273 | 11.3 | 30.6 | 0.30 | 1.42 | 1.42 | 90 | 1005.2 |
| 20260903173008 | 17 | 283 | 9.7 | 22.5 | 0.30 | 1.42 | 1.42 | 90 | 1005.2 |
| 20260903171507 | 17 | 259 | 9.7 | 20.9 | 0.15 | 1.27 | 1.27 | 90 | 1005.5 |
| 20260903170006 | 18 | 266 | 6.4 | 24.1 | 0.03 | 1.17 | 1.17 | 90 | 1005.3 |
| 20260903164504 | 18 | 208 | 8.0 | 14.5 | 0.00 | 1.14 | 1.14 | 90 | 1005.0 |
| 20260903163003 | 18 | 270 | 8.0 | 19.3 | 0.00 | 1.14 | 1.14 | 91 | 1005.2 |
| 20260903161501 | 18 | 214 | 6.4 | 17.7 | 0.00 | 1.14 | 1.14 | 91 | 1005.2 |
| 20260903160002 | 18 | 222 | 6.4 | 24.1 | 0.00 | 1.14 | 1.14 | 91 | 1005.1 |
| 20260903154600 | 18 | 225 | 11.3 | 22.5 | 0.03 | 1.14 | 1.14 | 91 | 1005.0 |
| 20260903153107 | 17 | 218 | 6.4 | 16.1 | 0.05 | 1.14 | 1.14 | 92 | 1005.1 |
| 20260903151607 | 17 | 212 | 9.7 | 20.9 | 0.05 | 1.14 | 1.14 | 93 | 1005.4 |
| 20260903150059 | 17 | 178 | 3.2 | 9.7 | 0.05 | 1.14 | 1.14 | 92 | 1005.5 |
| 20260903144551 | 17 | 188 | 4.8 | 11.3 | 0.03 | 1.09 | 1.09 | 92 | 1005.9 |
| 20260903143050 | 17 | 199 | 6.4 | 12.9 | 0.00 | 1.09 | 1.09 | 92 | 1005.9 |
| 20260903141549 | 17 | 224 | 6.4 | 17.7 | 0.00 | 1.09 | 1.09 | 92 | 1006.1 |
| 20260903140055 | 17 | 168 | 3.2 | 12.9 | 0.00 | 1.09 | 1.09 | 92 | 1006.5 |
| 20260903134548 | 16 | 179 | 6.4 | 12.9 | 0.00 | 1.27 | 1.09 | 92 | 1006.6 |
| 20260903133046 | 16 | 238 | 8.0 | 16.1 | 0.00 | 1.27 | 1.09 | 92 | 1006.7 |
| 20260903131542 | 16 | 210 | 8.0 | 14.5 | 0.00 | 1.27 | 1.09 | 92 | 1006.7 |
| 20260903130047 | 16 | 212 | 6.4 | 11.3 | 0.00 | 1.27 | 1.09 | 92 | 1006.8 |
| 20260903124537 | 16 | 210 | 4.8 | 14.5 | 0.00 | 1.27 | 1.09 | 92 | 1007.1 |
| 20260903123036 | 16 | 132 | 4.8 | 12.9 | 0.00 | 1.27 | 1.09 | 92 | 1007.2 |
| 20260903121535 | 16 | 240 | 6.4 | 16.1 | 0.00 | 1.27 | 1.09 | 92 | 1007.3 |
| 20260903120035 | 16 | 183 | 6.4 | 14.5 | 0.03 | 1.27 | 1.09 | 92 | 1007.6 |
| 20260903114531 | 16 | 146 | 8.0 | 14.5 | 0.03 | 1.32 | 1.09 | 92 | 1007.7 |
| 20260903113028 | 16 | 153 | 6.4 | 12.9 | 0.03 | 1.32 | 1.09 | 92 | 1008.0 |
| 20260903111526 | 16 | 225 | 4.8 | 11.3 | 0.05 | 1.32 | 1.09 | 92 | 1008.1 |
| 20260903110024 | 16 | 210 | 1.6 | 11.3 | 0.05 | 1.30 | 1.07 | 92 | 1008.4 |
| 20260903104522 | 15 | 160 | 8.0 | 12.9 | 0.10 | 1.30 | 1.07 | 92 | 1008.5 |
| 20260903103021 | 15 | 182 | 6.4 | 11.3 | 0.13 | 1.30 | 1.07 | 92 | 1008.9 |
| 20260903101537 | 15 | 216 | 3.2 | 11.3 | 0.15 | 1.27 | 1.02 | 92 | 1009.1 |
| 20260903100018 | 15 | 237 | 1.6 | 9.7 | 0.18 | 1.24 | 0.99 | 92 | 1009.3 |
| 20260903094515 | 15 | 210 | 4.8 | 16.1 | 0.20 | 1.19 | 0.97 | 92 | 1009.5 |
| 20260903093013 | 15 | 227 | 9.7 | 22.5 | 0.23 | 1.17 | 0.94 | 92 | 1009.8 |
| 20260903091511 | 15 | 171 | 3.2 | 6.4 | 0.33 | 1.12 | 0.89 | 92 | 1009.9 |
| 20260903090109 | 15 | 217 | 1.6 | 6.4 | 0.30 | 1.07 | 0.81 | 92 | 1010.1 |
| 20260903084523 | 15 | 220 | 4.8 | 12.9 | 0.25 | 0.99 | 0.76 | 92 | 1010.3 |
| 20260903083017 | 15 | 214 | 3.2 | 8.0 | 0.20 | 0.94 | 0.71 | 92 | 1010.4 |
| 20260903081505 | 15 | 194 | 1.6 | 9.7 | 0.05 | 0.79 | 0.56 | 92 | 1010.6 |
| 20260903080006 | 15 | 205 | 4.8 | 11.3 | 0.03 | 0.76 | 0.51 | 93 | 1010.8 |
| 20260903074606 | 15 | 220 | 1.6 | 4.8 | 0.00 | 0.71 | 0.51 | 93 | 1011.0 |
| 20260903073059 | 15 | 220 | 0.0 | 1.6 | 0.00 | 0.71 | 0.51 | 93 | 1010.9 |
| 20260903071555 | 15 | 266 | 0.0 | 1.6 | 0.03 | 0.71 | 0.51 | 93 | 1011.1 |
| 20260903070052 | 15 | 285 | 0.0 | 9.7 | 0.05 | 0.71 | 0.51 | 93 | 1011.4 |
| 20260903064557 | 14 | 161 | 0.0 | 4.8 | 0.10 | 0.71 | 0.51 | 93 | 1011.3 |
| 20260903063047 | 14 | 111 | 1.6 | 3.2 | 0.13 | 0.71 | 0.51 | 93 | 1011.6 |
| 20260903061546 | 14 | 155 | 1.6 | 4.8 | 0.28 | 0.71 | 0.48 | 92 | 1011.7 |
| 20260903060044 | 14 | 135 | 3.2 | 8.0 | 0.28 | 0.69 | 0.43 | 92 | 1011.9 |
| 20260903054543 | 14 | 150 | 3.2 | 4.8 | 0.33 | 0.64 | 0.41 | 92 | 1011.8 |
| 20260903053054 | 14 | 160 | 1.6 | 4.8 | 0.30 | 0.61 | 0.36 | 92 | 1012.0 |
| 20260903051546 | 14 | 196 | 1.6 | 4.8 | 0.15 | 0.43 | 0.20 | 92 | 1012.1 |
| 20260903050039 | 14 | 223 | 1.6 | 8.0 | 0.15 | 0.41 | 0.15 | 92 | 1012.1 |
| 20260903044541 | 13 | 166 | 1.6 | 3.2 | 0.08 | 0.33 | 0.08 | 92 | 1012.4 |
| 20260903043037 | 13 | 183 | 1.6 | 3.2 | 0.05 | 0.30 | 0.05 | 91 | 1012.4 |
| 20260903041535 | 13 | 143 | 1.6 | 6.4 | 0.05 | 0.28 | 0.05 | 91 | 1012.6 |
| 20260903040041 | 13 | 149 | 1.6 | 6.4 | 0.00 | 0.23 | 0.00 | 91 | 1012.6 |
| 20260903034534 | 13 | 157 | 3.2 | 6.4 | 0.00 | 0.23 | 0.00 | 90 | 1012.8 |
| 20260903033030 | 13 | 149 | 1.6 | 6.4 | 0.00 | 0.23 | 0.00 | 90 | 1012.8 |
| 20260903031530 | 13 | 157 | 3.2 | 6.4 | 0.00 | 0.23 | 0.00 | 89 | 1012.9 |
| 20260903030030 | 13 | 172 | 3.2 | 4.8 | 0.00 | 0.23 | 0.00 | 89 | 1013.1 |
| 20260903024527 | 13 | 169 | 3.2 | 6.4 | 0.00 | 0.23 | 0.00 | 89 | 1013.1 |
| 20260903023030 | 13 | 185 | 3.2 | 6.4 | 0.00 | 0.23 | 0.00 | 89 | 1013.2 |
| 20260903021524 | 13 | 211 | 3.2 | 8.0 | 0.00 | 0.23 | 0.00 | 88 | 1013.4 |
| 20260903020022 | 13 | 182 | 3.2 | 8.0 | 0.00 | 0.23 | 0.00 | 88 | 1013.6 |
| 20260903014520 | 13 | 172 | 3.2 | 6.4 | 0.00 | 0.23 | 0.00 | 87 | 1013.6 |
| 20260903013019 | 13 | 176 | 1.6 | 3.2 | 0.00 | 0.23 | 0.00 | 87 | 1013.7 |
| 20260903011518 | 13 | 198 | 1.6 | 4.8 | 0.00 | 0.23 | 0.00 | 87 | 1013.7 |
| 20260903010016 | 13 | 219 | 1.6 | 4.8 | 0.00 | 0.23 | 0.00 | 86 | 1013.8 |
| 20260903004516 | 13 | 245 | 3.2 | 8.0 | 0.00 | 0.23 | 0.00 | 87 | 1013.9 |
| 20260903003014 | 13 | 231 | 4.8 | 6.4 | 0.00 | 0.23 | 0.00 | 87 | 1013.9 |
| 20260903001513 | 13 | 208 | 3.2 | 8.0 | 0.00 | 0.23 | 0.00 | 87 | 1013.9 |
| 20260903000020 | 13 | 269 | 1.6 | 8.0 | 0.00 | 0.23 | 0.00 | 88 | 1014.0 |
| 20260902234514 | 13 | 233 | 3.2 | 8.0 | 0.00 | 0.23 | 0.00 | 89 | 1014.0 |
| 20260902233009 | 13 | 240 | 3.2 | 8.0 | 0.00 | 0.23 | 0.00 | 89 | 1014.0 |
| 20260902231520 | 13 | 222 | 3.2 | 6.4 | 0.00 | 0.23 | 0.00 | 89 | 1014.0 |
| 20260902230007 | 14 | 214 | 3.2 | 8.0 | 0.00 | 0.23 | 0.00 | 89 | 1014.0 |
| 20260902224504 | 14 | 243 | 4.8 | 11.3 | 0.00 | 0.66 | 0.00 | 89 | 1014.1 |
| 20260902223002 | 14 | 243 | 3.2 | 8.0 | 0.00 | 0.66 | 0.00 | 90 | 1014.0 |
| 20260902221602 | 15 | 253 | 1.6 | 8.0 | 0.00 | 0.66 | 0.00 | 90 | 1013.9 |